STARLINK-2593 (48404 NORAD) Tracking and Keplerian Element Data

This shows tracking and keplerian element data for the satellite.

Feedback or suggestion? Click here.




ElementValue
Catalog48404
NameSTARLINK-2593
Epoch Orbit364
Epoch Day214.91667824
Epoch Year2021
RAAN322.4365
Inclination53.0475
Eccentricity0.0001337
Argument of Perigee67.5971
Mean Anonmoly28.832
Mean Motion15.11159958
Decay Rate-0.0107374
L11 48404U 21038BD 21214.91667824 -.01073740 00000-0 -68359-1 0 9993
L22 48404 53.0475 322.4365 0001337 67.5971 28.8320 15.11159958 3641

Live tracking and technical data element details for STARLINK-2593 (NORAD 48404). STARLINK-2593 can be tracked NOW for your location showing map with azimuth and elevation plus other details from your city location.

Track the satellite on the map from your city or location and see movement details for azimuth, elevation, latitude, longitude, range, height, and movement on the map or in text.







IsCatalogInMostPopularTable: catalog: 48404, numindb: 28
Update: records affected: 1



GetName: 48404 STARLINK-2593

Hit Count: updated at: Tue, 03 Aug 2021 23:41:24 GMT